Waarnemingen

Advertentie
Mijn weer
Sa Pobla, Spanje (8312): temperatuur & dauwpunt: 06.07.2020 14:00:00 - 12.07.2020 14:00:00 (CEST)Sa Pobla, Spanje (8312): windsnelheid & windstoten: 06.07.2020 14:00:00 - 12.07.2020 14:00:00 (CEST)Sa Pobla, Spanje (8312): windrichting: 06.07.2020 14:00:00 - 12.07.2020 14:00:00 (CEST)Sa Pobla, Spanje (8312): luchtdruk: 06.07.2020 14:00:00 - 12.07.2020 14:00:00 (CEST)Sa Pobla, Spanje (8312): zicht: 06.07.2020 14:00:00 - 12.07.2020 14:00:00 (CEST)Sa Pobla, Spanje (8312): Zonneschijnduur: 06.07.2020 14:00:00 - 12.07.2020 14:00:00 (CEST)Sa Pobla, Spanje (8312): neerslag: 06.07.2020 14:00:00 - 12.07.2020 14:00:00 (CEST)
Datum & Tijd tt [°C] td [°C] ff [km/u] ff [kn] fx [km/u] fx [kn] dd ppp [hPa] vv [km] sd [min] rr [mm]
12.07.2020 14:00:00 28,7 18,8 18 10 32 17 NO 1019,0 20 51 -
12.07.2020 13:00:00 29,2 18,9 13 7 31 17 ONO 1019,9 20 59 0,0
12.07.2020 12:00:00 29,3 18,8 11 6 23 12 NO 1020,2 20 60 0,0
12.07.2020 11:00:00 28,1 16,0 7 4 16 9 O 1020,0 20 60 0,0
12.07.2020 10:00:00 26,7 18,0 8 4 20 11 O 1019,8 20 60 0,0
12.07.2020 09:00:00 25,7 17,9 9 5 16 8 NNO 1019,3 20 60 0,0
12.07.2020 08:00:00 20,4 16,0 2 1 4 2 ZO 1019,0 20 57 -
12.07.2020 07:00:00 17,6 14,7 2 1 4 2 ZW 1018,6 20 0 0,0
12.07.2020 06:00:00 17,7 14,6 4 2 6 4 ZZW 1018,4 20 0 0,0
12.07.2020 05:00:00 18,6 15,4 4 2 5 3 ZZW 1018,4 20 0 0,0
12.07.2020 04:00:00 18,8 15,9 3 2 6 4 NW 1018,5 20 0 0,0
12.07.2020 03:00:00 20,0 16,0 5 3 9 5 NW 1018,7 20 0 0,0
12.07.2020 02:00:00 19,8 16,6 3 2 6 4 WNW 1019,1 19 0 -
12.07.2020 01:00:00 20,4 17,4 2 1 4 2 WZW 1019,3 20 0 0,0
12.07.2020 00:00:00 21,4 17,8 1 0 12 6 ZZO 1019,5 20 0 0,0
11.07.2020 23:00:00 23,4 18,3 8 5 16 9 N 1019,1 20 0 0,0
11.07.2020 22:00:00 23,6 18,5 9 5 19 11 N 1018,7 20 0 0,0
11.07.2020 21:00:00 24,4 18,5 11 6 24 13 ONO 1018,3 20 11 0,0
11.07.2020 20:00:00 25,7 18,2 13 7 30 16 ONO 1018,1 20 60 -
11.07.2020 19:00:00 26,6 17,4 16 9 37 20 NO 1018,2 20 60 0,0
11.07.2020 18:00:00 27,9 17,1 17 9 35 19 NO 1018,5 20 60 0,0
11.07.2020 17:00:00 27,8 17,9 18 10 37 20 NO 1018,7 20 60 0,0
11.07.2020 16:00:00 28,4 18,2 21 11 39 21 NO 1018,8 20 60 0,0
11.07.2020 15:00:00 27,8 18,2 25 14 44 24 NO 1018,8 20 60 0,0
11.07.2020 14:00:00 27,6 18,6 20 11 46 25 ONO 1018,9 20 60 -
11.07.2020 13:00:00 27,2 19,3 23 12 43 23 NO 1018,8 20 60 0,0
11.07.2020 12:00:00 27,4 19,7 24 13 42 23 NO 1018,6 20 60 0,0
11.07.2020 11:00:00 27,1 19,4 21 12 37 20 NO 1018,1 20 60 0,0
11.07.2020 10:00:00 26,9 19,3 17 9 32 17 NO 1017,7 20 60 0,0
11.07.2020 09:00:00 26,0 18,7 19 10 31 17 NO 1017,3 20 60 0,0
11.07.2020 08:00:00 24,6 20,5 16 9 24 13 NNO 1016,7 20 32 -
11.07.2020 07:00:00 23,4 21,3 11 6 23 12 NNO 1016,3 17 0 0,0
11.07.2020 06:00:00 23,0 20,9 10 6 17 9 NNO 1015,8 17 0 0,0
11.07.2020 05:00:00 21,1 19,1 9 5 13 7 NNO 1015,7 16 0 0,0
11.07.2020 04:00:00 20,6 18,0 5 3 8 4 NNW 1016,1 20 0 0,0
11.07.2020 03:00:00 21,0 18,0 2 1 6 3 ZW 1016,2 15 0 0,0
11.07.2020 02:00:00 22,1 18,5 4 2 7 4 N 1016,5 18 0 -
11.07.2020 01:00:00 22,8 18,5 4 2 8 5 NNW 1016,4 20 0 0,0
11.07.2020 00:00:00 24,0 19,1 5 3 15 8 Z 1016,1 20 0 0,0
10.07.2020 23:00:00 25,0 19,1 7 4 14 8 ZZO 1016,0 20 0 0,0
10.07.2020 22:00:00 26,5 17,3 5 3 15 8 ZZO 1015,3 20 0 0,0
10.07.2020 21:00:00 27,4 20,3 7 4 16 9 NO 1014,7 20 6 0,0
10.07.2020 20:00:00 29,4 20,3 12 7 29 15 NO 1014,2 20 60 -
10.07.2020 19:00:00 32,0 15,5 14 8 29 16 ONO 1013,8 20 60 0,0
10.07.2020 18:00:00 32,7 16,1 10 5 25 13 OZO 1014,2 20 59 0,0
10.07.2020 17:00:00 33,1 19,9 11 6 26 14 Z 1014,8 20 60 0,0
10.07.2020 16:00:00 32,0 19,3 14 7 27 15 ZO 1015,3 20 60 0,0
10.07.2020 15:00:00 29,5 18,0 9 5 19 11 O 1015,4 20 41 0,0
10.07.2020 14:00:00 27,2 17,9 12 7 24 13 OZO 1016,2 20 0 -
10.07.2020 13:00:00 28,3 16,2 11 6 29 16 Z 1017,3 20 0 0,0
10.07.2020 12:00:00 28,0 19,5 10 5 28 15 N 1016,6 20 36 0,0
10.07.2020 11:00:00 27,3 18,6 7 4 22 12 NO 1015,2 20 35 0,0
10.07.2020 10:00:00 26,4 19,1 6 3 15 8 NO 1015,2 20 35 0,0
10.07.2020 09:00:00 24,5 17,7 4 2 18 10 O 1015,5 20 0 0,0
10.07.2020 08:00:00 23,2 19,1 6 4 14 8 Z 1015,5 20 0 -
10.07.2020 07:00:00 22,5 18,2 5 3 21 11 NW 1015,2 20 0 0,0
10.07.2020 06:00:00 21,3 17,7 9 5 16 8 NNO 1015,2 20 0 0,0
10.07.2020 05:00:00 21,5 16,2 4 2 9 5 WZW 1017,8 20 0 0,0
10.07.2020 04:00:00 21,0 18,0 4 2 7 4 ZZO 1017,1 20 0 0,0
10.07.2020 03:00:00 20,8 16,6 4 2 9 5 Z 1017,5 20 0 0,0
10.07.2020 02:00:00 21,2 17,0 5 3 11 6 WZW 1017,6 20 0 -
10.07.2020 01:00:00 21,9 17,5 4 2 8 5 N 1016,6 20 0 0,0
10.07.2020 00:00:00 23,2 18,1 5 3 8 4 ZW 1016,9 20 0 0,0
09.07.2020 23:00:00 23,6 18,2 3 2 8 4 ZZW 1016,5 20 0 0,0
09.07.2020 22:00:00 24,7 19,1 2 1 8 4 ZZW 1016,1 20 0 0,0
09.07.2020 21:00:00 26,0 20,1 6 4 24 13 NNW 1015,8 20 0 0,0
09.07.2020 20:00:00 28,4 16,6 11 6 17 9 NO 1015,3 20 22 -
09.07.2020 19:00:00 29,1 15,6 11 6 23 13 O 1015,6 20 8 0,0
09.07.2020 18:00:00 28,7 18,2 16 9 27 15 ZO 1016,8 20 0 0,0
09.07.2020 17:00:00 29,9 18,3 13 7 22 12 NO 1016,9 20 40 0,0
09.07.2020 16:00:00 30,3 17,7 12 7 29 16 NO 1017,4 20 47 0,0
09.07.2020 15:00:00 30,5 15,0 16 9 32 17 ONO 1017,7 20 52 0,0
09.07.2020 14:00:00 30,9 16,1 15 8 25 14 NO 1018,0 20 60 -
09.07.2020 13:00:00 30,3 16,0 11 6 31 17 NNO 1018,1 20 46 0,0
09.07.2020 12:00:00 29,7 16,8 17 9 27 14 NO 1016,6 20 53 0,0
09.07.2020 11:00:00 30,1 14,6 6 3 15 8 O 1018,0 20 60 0,0
09.07.2020 10:00:00 27,7 15,7 5 3 11 6 ZO 1018,2 20 60 0,0
09.07.2020 09:00:00 25,1 18,5 5 3 8 5 Z 1018,6 20 60 0,0
09.07.2020 08:00:00 21,7 16,9 4 2 11 6 ZZW 1018,2 20 4 -
09.07.2020 07:00:00 19,2 15,3 5 3 8 5 ZZW 1017,5 20 0 0,0
09.07.2020 06:00:00 19,1 15,3 4 2 6 4 ZW 1017,1 20 0 0,0
09.07.2020 05:00:00 20,0 15,4 4 2 9 5 ZW 1016,8 20 0 0,0
09.07.2020 04:00:00 20,3 14,9 6 3 9 5 WZW 1016,6 20 0 0,0
09.07.2020 03:00:00 20,0 15,6 2 1 10 5 Z 1017,2 20 0 0,0
09.07.2020 02:00:00 21,0 15,8 5 3 9 5 WNW 1017,9 11 0 -
09.07.2020 01:00:00 21,8 15,6 2 1 10 5 W 1019,0 20 0 0,0
09.07.2020 00:00:00 22,6 16,0 3 2 10 5 NNW 1018,7 20 0 0,0
08.07.2020 23:00:00 22,6 16,4 4 2 9 5 O 1019,2 20 0 0,0
08.07.2020 22:00:00 24,1 16,1 3 2 10 6 Z 1018,9 20 0 0,0
08.07.2020 21:00:00 25,4 15,4 6 4 16 9 ONO 1017,9 20 5 0,0
08.07.2020 20:00:00 26,7 14,1 8 5 22 12 NO 1017,4 20 60 -
08.07.2020 19:00:00 27,5 14,5 11 6 25 14 ONO 1016,8 13 60 0,0
08.07.2020 18:00:00 29,0 15,9 13 7 29 16 ONO 1017,0 20 60 0,0
08.07.2020 17:00:00 29,2 16,0 17 9 30 16 ONO 1017,6 20 60 0,0
08.07.2020 16:00:00 30,0 15,7 10 6 26 14 ONO 1018,5 20 60 0,0
08.07.2020 15:00:00 29,7 16,1 13 7 25 14 ONO 1018,2 20 60 0,0
08.07.2020 14:00:00 29,5 14,9 12 6 22 12 ONO 1018,6 20 60 -
08.07.2020 13:00:00 29,0 14,4 10 5 24 13 NO 1018,9 20 60 0,0
08.07.2020 12:00:00 28,9 13,2 11 6 23 12 ONO 1018,7 20 60 0,0
08.07.2020 11:00:00 28,0 10,6 10 5 21 11 ONO 1018,5 20 60 0,0
08.07.2020 10:00:00 26,9 12,5 6 3 13 7 ONO 1018,1 20 60 0,0
08.07.2020 09:00:00 24,1 18,5 3 2 6 3 Z 1017,9 20 60 0,0
08.07.2020 08:00:00 20,4 17,8 3 2 9 5 ZZW 1017,7 18 57 -
08.07.2020 07:00:00 18,4 16,9 5 3 10 5 ZZW 1017,5 16 0 0,0
08.07.2020 06:00:00 18,3 16,8 1 1 4 2 NO 1017,3 17 0 0,0
08.07.2020 05:00:00 18,8 17,0 2 1 7 4 Z 1017,3 17 0 0,0
08.07.2020 04:00:00 20,1 18,1 4 2 7 4 WZW 1017,3 16 0 0,0
08.07.2020 03:00:00 20,4 18,0 2 1 8 5 Z 1017,6 16 0 0,0
08.07.2020 02:00:00 21,3 18,7 1 0 4 2 NNW 1018,0 6 0 -
08.07.2020 01:00:00 22,8 19,3 4 2 7 4 N 1017,9 18 0 0,0
08.07.2020 00:00:00 23,5 19,4 5 3 6 4 NNW 1017,6 18 0 0,0
07.07.2020 23:00:00 24,5 19,6 4 2 18 10 NNO 1017,5 18 0 0,0
07.07.2020 22:00:00 24,8 19,6 10 5 21 11 NNO 1016,8 20 0 0,0
07.07.2020 21:00:00 25,3 19,6 13 7 24 13 NO 1016,6 20 0 0,0
07.07.2020 20:00:00 26,2 19,6 14 7 26 14 NO 1016,5 20 25 -
07.07.2020 19:00:00 27,4 19,5 17 9 29 16 NO 1016,2 20 60 0,0
07.07.2020 18:00:00 28,2 19,1 18 10 29 16 NO 1016,3 20 60 0,0
07.07.2020 17:00:00 28,6 19,0 16 8 27 15 NO 1016,5 18 60 0,0
07.07.2020 16:00:00 28,9 19,0 14 8 26 14 NO 1016,7 20 60 0,0
07.07.2020 15:00:00 28,8 19,1 16 9 31 17 NO 1016,8 20 58 0,0
07.07.2020 14:00:00 28,8 18,8 14 8 27 15 NO 1017,0 19 52 -
07.07.2020 13:00:00 28,6 19,0 15 8 27 14 NO 1017,1 6 60 0,0
07.07.2020 12:00:00 27,7 18,7 12 7 27 15 NO 1016,9 20 50 0,0
07.07.2020 11:00:00 27,4 17,9 3 2 13 7 NO 1016,9 20 22 0,0
07.07.2020 10:00:00 26,6 19,5 7 4 18 10 ZO 1017,1 20 36 0,0
07.07.2020 09:00:00 25,0 19,6 5 3 10 5 ZZO 1017,0 20 59 0,0
07.07.2020 08:00:00 21,8 18,8 4 2 7 4 ZZW 1017,0 20 54 -
07.07.2020 07:00:00 19,7 18,0 3 2 8 5 ZZW 1017,0 20 0 0,0
07.07.2020 06:00:00 20,0 18,5 5 3 7 4 Z 1016,8 17 0 0,0
07.07.2020 05:00:00 20,8 19,1 5 3 10 5 ZZW 1016,6 19 0 0,0
07.07.2020 04:00:00 20,7 19,0 3 2 7 4 ZZW 1016,9 20 0 0,0
07.07.2020 03:00:00 22,0 19,9 4 2 7 4 W 1017,3 18 0 0,0
07.07.2020 02:00:00 22,4 20,1 4 2 6 3 W 1017,2 20 0 -
07.07.2020 01:00:00 22,9 20,3 3 1 5 3 WNW 1017,4 18 0 0,0
07.07.2020 00:00:00 23,6 20,9 3 2 12 7 NO 1017,4 20 0 0,0
06.07.2020 23:00:00 24,2 21,3 8 4 21 11 NO 1017,3 20 0 0,0
06.07.2020 22:00:00 25,3 20,5 10 5 18 10 O 1016,6 20 0 0,0
06.07.2020 21:00:00 27,3 18,0 11 6 16 9 O 1016,1 20 19 0,0
06.07.2020 20:00:00 29,9 16,6 6 3 24 13 Z 1015,8 20 60 -
06.07.2020 19:00:00 30,3 17,1 9 5 24 13 O 1015,8 20 60 0,0
06.07.2020 18:00:00 31,5 15,1 7 4 22 12 OZO 1015,9 3,3 60 0,0
06.07.2020 17:00:00 32,0 13,8 11 6 25 14 ONO 1015,9 20 59 0,0
06.07.2020 16:00:00 32,8 13,5 14 8 26 14 ONO 1016,0 20 60 0,0
06.07.2020 15:00:00 32,9 10,9 13 7 24 13 ONO 1016,2 20 60 0,0
06.07.2020 14:00:00 32,5 9,9 12 6 25 13 NO 1016,6 20 60 -

tt = temperatuur
td = dauwpunt
ff = windsnelheid
fx = windstoten
dd = windrichting
ppp = luchtdruk
vv = zicht
sd = Zonneschijnduur
rr = neerslag

Weerstations in de omgeving